sat.trackr.live / text

‹ back to catalog

STARLINK-35608

NORAD 66508 · 2025-263Z

PAYLOAD ACTIVE UNKNOWN

§ Identity

Operator
Country
US
Launch date
2025-11-15
Launch site
AFETR
Launch vehicle
Mass (kg)
RCS (m²)

Purposes: comms

External: N2YO · Heavens-Above · Gunter

§ Orbital elements

Epoch: 2026-05-25T02:22:17.106240Z

Period
94.26 min
Inclination
43.0020°
Eccentricity
0.0002152
Mean motion
15.27616332 rev/d
Perigee alt
481.5 km
Apogee alt
484.4 km
Semi-major
6,861.1 km
B*
1.2289e-3
RAAN
279.2701°
Arg perigee
270.9662°
Mean anomaly
89.0943°
Rev number
3,058

§ Raw data

STARLINK-356081 66508U 25263Z   26145.09880910  .00033749  00000+0  12289-2 0  99952 66508  43.0020 279.2701 0002152 270.9662  89.0943 15.27616332 30581

JSON: /api/v1/satellites/66508 · /tle

For live sub-satellite position, see the globe view (requires WebGL).

§ Visibility from observer

Set your observer location to see the next 7 days of passes ≥ 10°. The values pass through the URL so the page stays shareable.

No JS? Fill the form by hand. The geolocation button needs JavaScript.